Location: Unspecified
(52.0000°N, 4.4000°E)
Time: 01:24:08
(UTC+00:00)

Cosmos 2322 Rocket - Pass Details

Date: 14 May 2025
Orbit: 832 x 849 km, 71.0° (Epoch: 23 June)

Event Time Altitude Azimuth Distance (km) Brightness Sun altitude
Rises 22:20:51 0° 329° (NNW) 3,422 7.0 -17.1°
Reaches altitude 10° 22:23:47 10° 343° (NNW) 2,481 6.0 -17.3°
Maximum altitude 22:28:23 24° 37° (NE) 1,672 4.1 -17.5°
Drops below altitude 10° 22:32:57 10° 91° (E) 2,464 4.4 -17.7°
Enters shadow 22:35:01 - 102° (ESE) 3,110 4.9 -17.8°
